SCP
0 0 0 0 0 0 0 0 0 0 0 0 0 0 0 0 0 0 0 0 0 0 0 0 0 0 0 0 0 0 0 0 0 0 0 0 0 0 0 0 0 0 0 0
0 0 0 0 0 0 0 0 0 0 0 0 0 0 0 0 0 0 0 0 0 0 0 0 0 0 0 0 0 0 0 0 0 0 0 0 0 0 0 0 0 0 0 0
0 0 0 0 0 0 0 0 0 0 0 0 0 0 0 0 0 0 0 0 0 0 0 0 0 0 0 0 0 0 0 0 0 0 0 0 0 0 0 0 0 0 0 0
0 0 0 0 0 0 0 0 0 0 0 0 0 0 0 0 0 0 0 0 0 0 0 0 0 0 0 0 0 0 0 0 0 0 0 0 0 0 0 0 0 0 0 0
0 0 0 0 0 0 0 0 0 0 0 0 0 0 0 0 0 0 0 0 0 0 0 0 0 0 0 0 0 0 0 0 0 0 0 0 0 0 0 0 0 0 0 0
0 0 0 0 0 0 0 0 0 0 0 0 0 0 0 0 0 0 0 0 0 0 0 0 0 0 0 0 0 0 0 0 0 0 0 0 0 0 0 0 0 0 0 0
0 0 0 0 0 0 0 0 0 0 0 0 0 0 0 0 0 0 0 0 0 0 0 0 0 0 0 0 0 0 0 0 0 0 0 0 0 0 0 0 0 0 0 0
0 0 0 0 0 0 0 0 0 0 0 0 0 0 0 0 0 0 0 0 0 0 0 0 0 0 0 0 0 0 0 0 0 0 0 0 0 0 0 0 0 0 0 0
0 0 0 0 0 0 0 0 0 0 0 0 0 0 0 0 0 0 0 0 0 0 0 0 0 0 0 0 0 0 0 0 0 0 0 0 0 0 0 0 0 0 0 0
0 0 0 0 0 0 0 0 0 0 0 0 0 0 0 0 0 0 0 0 0 0 0 0 0 0 0 0 0 0 0 0 0 0 0 0 0 0 0 0 0 0 0 0
0 0 0 0 0 0 0 0 0 0 0 0 0 0 0 0 0 0 0 0 0 0 0 0 0 0 0 0 0 0 0 0 0 0 0 0 0 0 0 0 0 0 0 0
0 0 0 0 0 0 0 0 0 0 0 0 0 0 0 0 0 0 0 0 0 0 0 0 0 0 0 0 0 0 0 0 0 0 0 0 0 0 0 0 0 0 0 0
0 0 0 0 0 0 0 0 0 0 0 0 0 0 0 0 0 0 0 0 0 0 0 0 0 0 0 0 0 0 0 0 0 0 0 0 0 0 0 0 0 0 0 0
0 0 0 0 0 0 0 0 0 0 0 0 0 0 0 0 0 0 0 0 0 0 0 0 0 0 0 0 0 0 0 0 0 0 0 0 0 0 0 0 0 0 0 0
0 0 0 0 0 0 0 0 0 0 0 0 0 0 0 0 0 0 0 0 0 0 0 0 0 0 0 0 0 0 0 0 0 0 0 0 0 0 0 0 0 0 0 0
0 0 0 0 0 0 0 0 0 0 0 0 0 0 0 0 0 0 0 0 0 0 0 0 0 0 0 0 0 0 0 0 0 0 0 0 0 0 0 0 0 0 0 0
0 0 0 0 0 0 0 0 0 0 0 0 0 0 0 0 0 0 0 0 0 0 0 0 0 0 0 0 0 0 0 0 0 0 0 0 0 0 0 0 0 0 0 0
0 0 0 0 0 0 0 0 0 0 0 0 0 0 0 0 0 0 0 0 0 0 0 0 0 0 0 0 0 0 0 0 0 0 0 0 0 0 0 0 0 0 0 0
0 0 0 0 0 0 0 0 0 0 0 0 0 0 0 0 0 0 0 0 0 0 0 0 0 0 0 0 0 0 0 0 0 0 0 0 0 0 0 0 0 0 0 0
0 0 0 0 0 0 0 0 0 0 0 0 0 0 0 0 0 0 0 0 0 0 0 0 0 0 0 0 0 0 0 0 0 0 0 0 0 0 0 0 0 0 0 0
0 0 0 0 0 0 0 0 0 0 0 0 0 0 0 0 0 0 0 0 0 0 0 0 0 0 0 0 0 0 0 0 0 0 0 0 0 0 0 0 0 0 0 0
0 0 0 0 0 0 0 0 0 0 0 0 0 0 0 0 0 0 0 0 0 0 0 0 0 0 0 0 0 0 0 0 0 0 0 0 0 0 0 0 0 0 0 0
0 0 0 0 0 0 0 0 0 0 0 0 0 0 0 0 0 0 0 0 0 0 0 0 0 0 0 0 0 0 0 0 0 0 0 0 0 0 0 0 0 0 0 0
0 0 0 0 0 0 0 0 0 0 0 0 0 0 0 0 0 0 0 0 0 0 0 0 0 0 0 0 0 0 0 0 0 0 0 0 0 0 0 0 0 0 0 0
0 0 0 0 0 0 0 0 0 0 0 0 0 0 0 0 0 0 0 0 0 0 0 0 0 0 0 0 0 0 0 0 0 0 0 0 0 0 0 0 0 0 0 0
0 0 0 0 0 0 0 0 0 0 0 0 0 0 0 0 0 0 0 0 0 0 0 0 0 0 0 0 0 0 0 0 0 0 0 0 0 0 0 0 0 0 0 0
0 0 0 0 0 0 0 0 0 0 0 0 0 0 0 0 0 0 0 0 0 0 0 0 0 0 0 0 0 0 0 0 0 0 0 0 0 0 0 0 0 0 0 0
Wind_Speed
10 8 6 9 10 11 13 11 10 9 9 8 6 5 4 3 3 3 3 3 3 3 3 2 1 1 2 3 4 5 5 6 6 5 5 5 5 5 5 5 6 6 6 6
7 7 8 10 12 12 13 12 13 12 11 7 5 3 3 2 2 3 3 3 4 4 3 3 3 2 2 3 3 4 5 5 5 5 5 5 5 5 6 6 6 6 7 7
6 4 6 11 10 12 9 9 10 11 8 2 2 2 3 2 2 2 3 4 4 4 4 4 3 3 3 3 2 3 4 4 4 5 5 5 5 6 6 6 6 7 7 7
4 3 11 4 1 7 8 8 9 8 5 4 4 3 3 2 2 3 4 4 4 4 4 4 3 3 2 2 2 3 4 4 4 5 5 5 5 6 6 6 6 6 7 7
4 7 10 5 3 5 6 6 6 7 6 4 2 2 1 1 2 4 4 5 4 5 5 4 4 3 2 2 2 2 3 4 4 4 5 5 5 6 6 6 6 6 6 7
6 7 8 2 2 2 3 5 1 3 4 2 2 2 1 2 4 4 5 4 5 4 4 4 4 3 2 2 2 3 4 4 4 4 5 5 6 5 5 5 6 5 6 6
9 9 8 1 2 4 5 1 2 1 2 2 3 3 3 4 4 4 4 5 4 4 4 4 4 2 2 3 3 4 3 3 4 4 5 5 5 5 5 5 5 5 6 6
8 9 8 3 5 5 1 2 1 1 2 3 4 4 3 3 4 3 4 4 4 4 4 4 4 3 3 4 4 4 3 3 4 4 4 4 5 4 4 5 5 5 5 5
8 6 1 4 3 1 1 0 1 2 3 3 4 4 4 4 4 4 4 4 4 4 4 4 4 4 4 5 4 4 4 4 4 4 4 4 4 4 4 4 4 4 4 5
4 5 3 2 1 0 1 2 2 2 3 3 4 4 4 4 4 4 4 4 4 4 5 5 5 5 5 5 5 4 5 4 4 4 4 4 3 4 4 4 5 5 5 5
6 4 2 3 4 3 2 2 2 3 3 3 4 4 4 4 4 4 4 4 4 4 5 6 6 6 5 5 4 5 5 4 4 4 4 4 4 4 5 6 5 6 5 5
6 4 4 4 3 3 3 3 3 3 4 4 4 5 4 4 4 4 4 4 4 5 5 6 6 6 6 5 5 5 5 4 4 3 3 4 4 4 5 7 7 9 8 7
6 4 4 4 3 2 2 2 3 3 4 4 4 4 4 5 4 4 5 5 5 6 6 6 6 6 6 5 5 5 5 5 4 4 4 4 4 4 4 4 6 8 9 9
3 1 2 2 2 2 2 2 3 3 3 3 4 4 4 4 4 5 5 5 6 6 6 6 6 6 6 5 5 5 6 5 5 5 4 4 4 4 4 4 4 4 5 8
2 2 3 2 2 2 2 2 2 3 3 3 3 4 4 4 5 5 5 5 5 5 5 5 6 7 6 5 5 5 5 4 4 4 4 4 4 4 4 5 5 4 3 4
2 1 1 1 2 2 2 2 3 4 4 4 4 4 5 5 5 5 5 4 4 5 5 6 7 7 6 6 6 5 5 6 5 4 4 4 4 4 4 4 4 4 4 4
2 2 2 2 3 3 4 4 4 4 4 5 5 5 4 4 4 4 5 4 5 5 6 6 7 7 6 6 5 5 4 5 5 5 4 4 4 4 4 4 4 4 4 4
3 3 3 4 4 4 4 4 3 4 4 5 4 4 4 4 4 5 5 5 5 5 5 6 6 6 6 6 5 4 4 4 4 4 4 4 4 4 4 5 5 5 4 4
1 2 2 3 3 3 4 4 4 4 4 3 3 3 4 4 4 5 5 5 5 6 5 5 7 7 6 6 6 4 4 4 4 4 4 5 5 4 4 4 5 4 4 4
3 2 3 3 3 3 3 4 3 3 3 3 3 3 4 4 4 4 5 5 5 5 6 7 7 6 6 5 6 4 4 5 5 4 4 4 4 5 5 5 5 4 4 4
4 4 3 3 4 4 4 4 3 4 3 3 3 4 5 5 5 4 4 5 5 5 6 8 6 5 5 6 6 5 5 5 5 5 5 5 5 5 5 5 4 4 4 4
4 4 4 4 4 5 4 4 4 4 4 3 4 4 4 5 5 5 5 5 6 7 6 5 5 6 8 8 5 5 5 5 5 4 4 4 4 4 5 5 4 4 4 4
5 4 5 4 5 5 5 4 4 4 4 4 4 4 5 5 4 5 5 4 5 7 7 5 7 10 11 7 5 5 5 5 5 5 4 4 4 4 4 5 5 4 4 4
5 5 5 5 4 4 5 5 4 4 4 5 4 4 4 4 4 4 4 7 9 9 6 7 11 11 10 5 5 5 5 5 5 5 5 4 4 4 4 4 4 4 4 5
5 5 4 4 4 4 4 4 4 4 4 4 4 4 4 3 4 5 5 6 8 9 6 7 10 10 7 5 5 5 5 5 5 5 4 4 4 4 4 4 4 4 4 4
4 4 4 4 4 3 3 3 3 3 3 4 4 4 4 3 4 5 5 6 7 8 7 5 6 6 5 5 5 5 5 5 5 5 5 4 5 5 4 4 5 4 4 4
4 3 3 3 3 3 3 3 3 4 4 4 5 5 5 4 4 5 5 5 5 5 5 5 5 5 5 5 5 5 5 5 5 5 4 4 4 4 4 5 4 4 4 4
Wind_Direction
264 270 251 249 241 222 218 229 243 251 254 269 284 297 310 321 330 337 346 347 345 336 329 320 293 233 218 222 217 206 203 207 214 214 211 212 212 212 211 212 213 208 210 212
260 249 252 257 248 232 230 236 245 259 265 273 285 282 286 300 314 318 329 334 332 328 324 314 301 283 253 234 222 216 217 219 221 218 213 213 215 214 212 214 214 212 214 215
254 260 271 255 236 216 213 218 222 235 247 267 266 270 284 297 307 318 326 328 325 320 313 307 299 289 277 269 241 224 227 229 227 221 217 214 212 212 214 217 216 218 219 220
253 248 242 252 178 204 215 231 224 233 243 246 263 279 289 294 304 319 329 327 325 323 319 313 307 296 287 276 249 237 237 234 230 225 223 217 213 216 219 219 220 223 223 224
216 243 263 260 185 187 208 244 226 229 249 270 291 264 247 18 321 313 318 319 319 319 317 314 310 305 293 280 266 255 252 247 236 226 226 223 223 225 223 222 224 225 227 227
215 231 244 252 133 177 185 229 183 218 245 229 188 238 271 349 321 320 324 324 324 324 322 316 314 309 294 285 275 266 263 259 251 237 234 233 234 234 230 228 231 230 233 232
223 235 257 287 117 157 206 232 97 195 239 205 226 284 320 316 313 316 320 321 321 320 317 313 313 302 283 285 281 283 277 265 253 243 240 241 239 234 230 230 233 234 236 238
208 224 240 139 150 193 250 60 96 309 278 257 280 305 302 298 300 305 312 316 317 316 315 317 315 298 291 293 296 296 284 268 257 251 243 238 237 236 233 228 231 236 238 243
205 219 30 152 169 134 88 263 305 303 288 275 276 287 294 294 295 298 302 307 310 309 311 316 315 302 294 298 301 291 278 267 262 258 247 237 231 230 231 228 230 235 239 246
229 244 239 216 215 290 302 284 296 292 285 273 274 285 290 290 293 295 300 304 306 305 304 307 309 301 295 299 295 286 277 272 266 257 248 238 234 230 230 229 232 235 240 247
244 259 273 237 224 239 267 277 290 293 288 279 277 283 286 290 293 295 299 300 298 293 293 297 302 302 304 303 295 282 278 275 269 258 251 243 238 237 237 239 238 241 243 243
243 239 242 255 252 267 270 277 288 303 308 301 284 284 289 288 289 290 292 294 292 292 293 296 299 300 304 301 290 282 278 273 266 261 256 251 250 252 244 248 252 251 254 251
261 266 265 274 277 287 288 293 294 291 291 298 300 293 290 290 292 293 294 294 293 292 292 294 296 299 303 301 289 276 272 272 270 264 257 253 252 254 264 257 247 249 249 250
251 247 257 262 281 306 315 315 309 302 296 293 298 299 290 288 289 289 291 296 296 293 292 294 295 299 305 301 291 282 276 270 264 264 258 252 250 252 254 258 264 264 251 249
251 253 253 275 290 308 320 319 312 307 311 312 307 296 289 286 287 290 295 298 293 290 294 298 299 303 308 300 289 283 277 270 264 263 258 255 253 252 251 252 256 264 268 259
263 261 249 260 282 297 300 298 296 300 306 304 300 297 295 288 288 292 296 296 292 293 298 301 300 303 306 298 291 285 276 270 268 265 260 256 253 251 252 251 253 255 256 260
232 259 265 269 281 289 288 283 279 284 292 293 296 299 299 298 298 301 306 308 300 295 296 294 294 300 300 294 288 283 279 273 264 261 258 256 256 255 255 255 255 259 260 257
247 250 254 256 266 279 289 291 286 285 285 290 298 298 294 292 294 302 308 309 305 301 298 296 299 302 298 294 289 281 276 273 268 264 262 259 260 258 256 255 257 261 266 260
303 284 284 280 273 270 277 285 291 294 296 293 289 288 289 287 290 296 299 299 297 299 307 315 311 304 298 297 294 280 274 270 267 265 263 264 264 261 260 260 261 262 261 257
332 317 307 301 294 278 273 280 286 288 287 284 282 284 288 291 295 295 296 293 289 293 302 304 303 299 299 300 298 284 275 271 271 270 267 262 262 263 262 260 260 261 258 255
334 330 321 310 306 300 289 287 284 283 287 284 274 278 287 294 293 288 288 292 300 309 305 301 300 299 300 301 298 288 281 276 272 269 266 264 263 263 262 260 259 258 258 258
320 315 310 307 307 306 302 295 287 285 288 285 282 281 286 291 293 288 277 279 295 308 308 300 301 302 304 305 294 287 284 280 276 272 268 266 264 265 264 263 262 261 258 258
310 306 304 303 301 300 302 300 292 284 282 282 282 283 284 286 289 287 292 300 305 308 307 298 303 306 308 304 294 291 288 285 280 275 272 269 266 264 266 266 266 266 262 259
310 307 303 302 302 298 298 302 301 292 287 285 281 280 282 287 288 282 285 299 306 307 301 300 305 307 309 299 293 292 290 288 284 280 276 273 271 270 269 268 269 269 266 263
310 307 303 302 298 291 293 301 303 299 297 294 295 295 288 282 285 296 300 300 305 307 301 301 305 308 305 293 291 290 289 286 287 286 281 278 276 275 274 273 271 271 269 266
315 312 309 303 296 297 299 299 300 304 306 303 303 303 302 299 294 294 296 299 300 302 302 299 301 302 296 293 291 290 289 290 288 283 282 282 281 280 278 278 278 275 272 269
324 321 318 320 320 315 307 301 299 302 304 303 302 305 307 306 304 304 303 302 304 304 303 301 300 297 295 295 294 292 289 288 286 282 281 279 278 276 277 277 278 279 278 273